This is the latest recevied weather packets stored in our database for station/object DH1FR-13. If no packets are shown the sender has not sent any weather packets the latest 10 day(s).
| Time | Temp. | Humidity | Pressure | Rain* | Wind** | Luminosity | Snow |
|---|---|---|---|---|---|---|---|
| 1787656201 | 23.89° C | 47% | 1017.4 hPa | 0 mm | 0 m/s | - | - |
| 1787655600 | 23.33° C | 48% | 1017.6 hPa | 0 mm | 0 m/s | - | - |
| 1787655001 | 23.33° C | 49% | 1017.6 hPa | 0 mm | 0 m/s | - | - |
| 1787654400 | 22.78° C | 49% | 1017.4 hPa | 0 mm | 0 m/s | - | - |
| 1787653800 | 22.78° C | 49% | 1017.9 hPa | 0 mm | 0 m/s | - | - |
| 1787653200 | 22.78° C | 52% | 1017.7 hPa | 0 mm | 0 m/s | - | - |
| 1787652600 | 21.11° C | 55% | 1017.9 hPa | 0 mm | 0 m/s | - | - |
| 1787652001 | 21.11° C | 55% | 1017.9 hPa | 0 mm | 0 m/s | - | - |
| 1787651400 | 21.67° C | 55% | 1017.7 hPa | 0 mm | 0 m/s | - | - |
| 1787650801 | 21.11° C | 56% | 1017.8 hPa | 0 mm | 0 m/s | - | - |
| 1787650200 | 21.11° C | 57% | 1018 hPa | 0 mm | 0 m/s | - | - |
| 1787649601 | 20.56° C | 60% | 1017.9 hPa | 0 mm | 0 m/s | - | - |
| 1787649001 | 20° C | 62% | 1017.9 hPa | 0 mm | 0 m/s | - | - |
| 1787648400 | 19.44° C | 63% | 1018 hPa | 0 mm | 0 m/s | - | - |
| 1787647801 | 18.89° C | 65% | 1017.9 hPa | 0 mm | 0 m/s | - | - |
| 1787647200 | 18.33° C | 66% | 1017.9 hPa | 0 mm | 0 m/s | - | - |
| 1787646601 | 18.33° C | 69% | 1018.1 hPa | 0 mm | 0 m/s | - | - |
| 1787646001 | 17.78° C | 69% | 1017.9 hPa | 0 mm | 0 m/s | - | - |
| 1787645400 | 17.22° C | 69% | 1017.8 hPa | 0 mm | 0 m/s | - | - |
| 1787644800 | 16.67° C | 71% | 1018 hPa | 0 mm | 0 m/s | - | - |
| 1787644200 | 16.67° C | 72% | 1017.9 hPa | 0 mm | 0 m/s | - | - |
| 1787643600 | 15.56° C | 74% | 1017.8 hPa | 0 mm | 0 m/s | - | - |
| 1787643000 | 15° C | 76% | 1017.7 hPa | 0 mm | 0 m/s | - | - |
| 1787642401 | 15° C | 77% | 1017.6 hPa | 0 mm | 0 m/s | - | - |
| 1787641801 | 14.44° C | 78% | 1017.8 hPa | 0 mm | 0 m/s | - | - |
* Rain latest hour (hover to see other rain measurements)
** Current wind speed in m/s (hover to see current wind gust speed)